This is the latest recevied weather packets stored in our database for station/object 1NW106. If no packets are shown the sender has not sent any weather packets the latest 10 day(s).
| Time | Temp. | Humidity | Pressure | Rain* | Wind** | Luminosity | Snow |
|---|---|---|---|---|---|---|---|
| 1788246900 | 28.89° C | 84% | 1009.6 hPa | 0 mm | - | - | - |
| 1788246300 | 28.89° C | 84% | 1009.7 hPa | 0 mm | - | - | - |
| 1788245701 | 28.89° C | 85% | 1009.8 hPa | 0 mm | - | - | - |
| 1788245100 | 28.89° C | 87% | 1009.9 hPa | 0 mm | - | - | - |
| 1788244500 | 28.33° C | 85% | 1010.2 hPa | 0 mm | - | - | - |
| 1788243900 | 28.89° C | 84% | 1010.4 hPa | 0 mm | - | - | - |
| 1788243301 | 28.89° C | 84% | 1010.6 hPa | 0 mm | - | - | - |
| 1788242700 | 28.89° C | 85% | 1010.7 hPa | 0 mm | - | - | - |
| 1788242100 | 28.33° C | 86% | 1010.8 hPa | 0 mm | - | - | - |
| 1788241501 | 28.33° C | 88% | 1010.8 hPa | 0 mm | - | - | - |
| 1788240900 | 27.78° C | 89% | 1010.9 hPa | 0 mm | - | - | - |
| 1788240300 | 27.22° C | 90% | 1010.9 hPa | 0 mm | - | - | - |
| 1788239700 | 27.22° C | 89% | 1011.2 hPa | 0 mm | - | - | - |
| 1788239100 | 27.78° C | 87% | 1011.4 hPa | 0 mm | - | - | - |
| 1788238500 | 27.78° C | 89% | 1011.3 hPa | 0 mm | - | - | - |
| 1788237900 | 27.78° C | 88% | 1011.5 hPa | 0 mm | - | - | - |
| 1788237300 | 27.78° C | 88% | 1011.6 hPa | 0 mm | - | - | - |
| 1788231300 | 27.22° C | 88% | 1011.8 hPa | 0 mm | - | - | - |
| 1788230700 | 26.67° C | 89% | 1011.8 hPa | 0 mm | - | - | - |
| 1788230100 | 27.22° C | 88% | 1011.8 hPa | 0 mm | - | - | - |
| 1788229500 | 26.67° C | 95% | 1010.8 hPa | 0 mm | - | - | - |
| 1788228900 | 26.11° C | 99% | 1010.3 hPa | 0 mm | - | - | - |
| 1788168181 | 26.11° C | 99% | 1004.3 hPa | 2.03 mm | - | - | - |
| 1788167582 | 26.11° C | 99% | 1004.5 hPa | 2.03 mm | - | - | - |
| 1788167000 | 26.11° C | 99% | 1004.7 hPa | 2.03 mm | - | - | - |
* Rain latest hour (hover to see other rain measurements)
** Current wind speed in m/s (hover to see current wind gust speed)